JAL308 RJFF-RJTT

Flight info

Callsign JAL308
Flight time 1h 9m
Altitude 39000
Route IPRIR Y231 OMKAT Y235 FLUTE Y23 ARTIC Y71 XAC
Aircraft A339/H-SADE1E2E3GHIJ3J5M1P2RWXY/LB2D1

Departure

Time 2026-02-17 05:53
Airport Fukuoka Airport (RJFF)

Arrival

Time 2026-02-17 07:02
Airport Tokyo Haneda International Airport (RJTT)
Time Latitude Longitude Altitude Speed Heading
2026-02-17 05:37 33.59790 130.44693 50 ft 0 kts 61°
2026-02-17 05:42 33.59784 130.44681 49 ft 2 kts 61°
2026-02-17 05:42 33.59777 130.44665 49 ft 2 kts 61°
2026-02-17 05:43 33.59762 130.44634 50 ft 2 kts 61°
2026-02-17 05:43 33.59756 130.44617 49 ft 2 kts 89°
2026-02-17 05:43 33.59759 130.44600 50 ft 2 kts 128°
2026-02-17 05:43 33.59771 130.44589 50 ft 2 kts 156°
2026-02-17 05:44 33.59785 130.44582 50 ft 2 kts 152°
2026-02-17 05:44 33.59789 130.44579 50 ft 0 kts 150°
2026-02-17 05:46 33.59781 130.44585 49 ft 3 kts 150°
2026-02-17 05:47 33.59673 130.44658 49 ft 13 kts 150°
2026-02-17 05:47 33.59472 130.44795 49 ft 18 kts 150°
2026-02-17 05:47 33.59356 130.44853 49 ft 18 kts 176°
2026-02-17 05:48 33.59227 130.44867 49 ft 18 kts 156°
2026-02-17 05:48 33.59111 130.44943 49 ft 18 kts 150°
2026-02-17 05:48 33.58995 130.45023 49 ft 19 kts 151°
2026-02-17 05:48 33.58881 130.45100 49 ft 19 kts 150°
2026-02-17 05:49 33.58758 130.45183 49 ft 20 kts 151°
2026-02-17 05:49 33.58631 130.45271 49 ft 21 kts 150°
2026-02-17 05:49 33.58497 130.45363 49 ft 22 kts 150°
2026-02-17 05:49 33.58356 130.45459 49 ft 23 kts 151°
2026-02-17 05:50 33.58213 130.45557 49 ft 23 kts 150°
2026-02-17 05:50 33.58072 130.45651 49 ft 22 kts 150°
2026-02-17 05:50 33.57936 130.45746 49 ft 22 kts 150°
2026-02-17 05:51 33.57679 130.45921 49 ft 15 kts 150°
2026-02-17 05:51 33.57592 130.45950 49 ft 11 kts 198°
2026-02-17 05:51 33.57537 130.45872 49 ft 13 kts 242°
2026-02-17 05:51 33.57533 130.45792 49 ft 9 kts 309°
2026-02-17 05:52 33.57645 130.45714 49 ft 44 kts 331°
2026-02-17 05:52 33.58116 130.45395 50 ft 107 kts 330°
2026-02-17 05:52 33.58929 130.44844 61 ft 156 kts 328°
2026-02-17 05:52 33.59893 130.44196 551 ft 162 kts 329°
2026-02-17 05:53 33.60880 130.43517 1223 ft 161 kts 330°
2026-02-17 05:53 33.61814 130.42845 1875 ft 158 kts 330°
2026-02-17 05:53 33.62812 130.42156 2214 ft 172 kts 332°
2026-02-17 05:53 33.63917 130.41440 2533 ft 188 kts 338°
2026-02-17 05:54 33.65270 130.41220 2837 ft 205 kts
2026-02-17 05:54 33.66643 130.41948 3164 ft 225 kts 41°
2026-02-17 05:54 33.67604 130.43527 3518 ft 245 kts 59°
2026-02-17 05:55 33.69044 130.47533 4653 ft 272 kts 85°
2026-02-17 05:55 33.68676 130.49795 5381 ft 280 kts 116°
2026-02-17 05:55 33.67433 130.51584 6096 ft 284 kts 146°
2026-02-17 05:55 33.65682 130.52803 6751 ft 290 kts 154°
2026-02-17 05:56 33.63876 130.53897 7394 ft 295 kts 159°
2026-02-17 05:56 33.61983 130.54858 8128 ft 298 kts 161°
2026-02-17 05:56 33.60041 130.55804 8879 ft 300 kts 162°
2026-02-17 05:56 33.58104 130.56753 9602 ft 303 kts 162°
2026-02-17 05:57 33.56143 130.57722 10299 ft 307 kts 162°
2026-02-17 05:57 33.54111 130.58730 10742 ft 321 kts 162°
2026-02-17 05:57 33.51960 130.59801 11062 ft 339 kts 162°
2026-02-17 05:57 33.49728 130.60918 11373 ft 356 kts 162°
2026-02-17 05:58 33.47363 130.62105 11678 ft 373 kts 162°
2026-02-17 05:58 33.44947 130.63521 11968 ft 394 kts 152°
2026-02-17 05:58 33.42712 130.65624 12511 ft 408 kts 139°
2026-02-17 05:59 33.38982 130.70946 13933 ft 418 kts 132°
2026-02-17 05:59 33.37145 130.73704 14595 ft 424 kts 133°
2026-02-17 05:59 33.35245 130.76511 15194 ft 430 kts 133°
2026-02-17 05:59 33.33366 130.79268 15815 ft 435 kts 132°
2026-02-17 06:00 33.31792 130.82454 16276 ft 450 kts 112°
2026-02-17 06:00 33.31259 130.86173 16870 ft 457 kts 88°
2026-02-17 06:00 33.31796 130.89868 17502 ft 456 kts 70°
2026-02-17 06:00 33.32843 130.93445 18069 ft 460 kts 66°
2026-02-17 06:01 33.33953 130.97098 18577 ft 468 kts 68°
2026-02-17 06:01 33.34991 131.00862 19115 ft 475 kts 69°
2026-02-17 06:01 33.35960 131.04715 19708 ft 481 kts 71°
2026-02-17 06:01 33.36887 131.08557 20216 ft 487 kts 71°
2026-02-17 06:02 33.37826 131.12488 20698 ft 493 kts 71°
2026-02-17 06:02 33.38671 131.16507 21157 ft 500 kts 75°
2026-02-17 06:02 33.39351 131.20657 21690 ft 506 kts 77°
2026-02-17 06:03 33.40597 131.29076 22553 ft 517 kts 78°
2026-02-17 06:03 33.41220 131.33354 23051 ft 521 kts 77°
2026-02-17 06:03 33.41862 131.37740 23498 ft 527 kts 77°
2026-02-17 06:03 33.42501 131.42090 23911 ft 531 kts 77°
2026-02-17 06:04 33.43151 131.46468 24345 ft 535 kts 77°
2026-02-17 06:04 33.43813 131.50943 24735 ft 540 kts 77°
2026-02-17 06:04 33.44476 131.55441 25142 ft 545 kts 77°
2026-02-17 06:04 33.45151 131.60033 25514 ft 549 kts 77°
2026-02-17 06:05 33.45818 131.64606 25872 ft 554 kts 77°
2026-02-17 06:05 33.46493 131.69234 26152 ft 559 kts 78°
2026-02-17 06:05 33.47165 131.73843 26512 ft 563 kts 78°
2026-02-17 06:05 33.47853 131.78555 26829 ft 566 kts 78°
2026-02-17 06:06 33.48537 131.83254 27134 ft 571 kts 78°
2026-02-17 06:06 33.49220 131.87959 27434 ft 575 kts 78°
2026-02-17 06:06 33.49904 131.92717 27867 ft 578 kts 78°
2026-02-17 06:07 33.51277 132.02293 28334 ft 586 kts 78°
2026-02-17 06:07 33.51968 132.07130 28566 ft 591 kts 78°
2026-02-17 06:07 33.52661 132.11998 28874 ft 594 kts 78°
2026-02-17 06:07 33.53359 132.16930 29323 ft 596 kts 79°
2026-02-17 06:08 33.54051 132.21832 29843 ft 592 kts 78°
2026-02-17 06:08 33.54767 132.26767 30224 ft 591 kts 77°
2026-02-17 06:08 33.55689 132.31674 30403 ft 593 kts 72°
2026-02-17 06:08 33.56870 132.36469 30639 ft 594 kts 67°
2026-02-17 06:09 33.58242 132.41171 30887 ft 596 kts 65°
2026-02-17 06:09 33.59677 132.45888 31071 ft 597 kts 65°
2026-02-17 06:09 33.61104 132.50542 31386 ft 599 kts 65°
2026-02-17 06:09 33.62558 132.55341 31607 ft 601 kts 64°
2026-02-17 06:10 33.63976 132.60082 31804 ft 604 kts 65°
2026-02-17 06:10 33.65416 132.64909 32056 ft 608 kts 65°
2026-02-17 06:10 33.66823 132.69675 32228 ft 611 kts 65°
2026-02-17 06:11 33.69667 132.79356 32621 ft 614 kts 66°
2026-02-17 06:11 33.71102 132.84258 32927 ft 617 kts 66°
2026-02-17 06:11 33.72518 132.89107 33041 ft 618 kts 65°
2026-02-17 06:11 33.73966 132.94057 33399 ft 620 kts 65°
2026-02-17 06:12 33.75404 132.98993 33655 ft 621 kts 65°
2026-02-17 06:12 33.76832 133.03906 34050 ft 620 kts 65°
2026-02-17 06:12 33.78267 133.08841 34386 ft 620 kts 66°
2026-02-17 06:12 33.79688 133.13715 34750 ft 620 kts 66°
2026-02-17 06:13 33.81114 133.18622 35085 ft 620 kts 65°
2026-02-17 06:13 33.82532 133.23547 35363 ft 621 kts 65°
2026-02-17 06:13 33.83969 133.28536 35692 ft 620 kts 65°
2026-02-17 06:13 33.85389 133.33438 36052 ft 620 kts 64°
2026-02-17 06:14 33.86797 133.38325 36405 ft 619 kts 64°
2026-02-17 06:14 33.88211 133.43214 36690 ft 619 kts 65°
2026-02-17 06:14 33.89639 133.48210 36904 ft 621 kts 65°
2026-02-17 06:15 33.92479 133.58098 37321 ft 625 kts 65°
2026-02-17 06:15 33.93903 133.63094 37525 ft 627 kts 66°
2026-02-17 06:15 33.95348 133.68172 37715 ft 629 kts 66°
2026-02-17 06:15 33.96752 133.73117 37941 ft 629 kts 65°
2026-02-17 06:16 33.98160 133.78084 38106 ft 630 kts 66°
2026-02-17 06:16 34.01021 133.88178 38314 ft 634 kts 66°
2026-02-17 06:17 34.03771 133.98292 38746 ft 637 kts 71°
2026-02-17 06:17 34.04871 134.03543 38945 ft 640 kts 75°
2026-02-17 06:17 34.05839 134.08846 39097 ft 641 kts 75°
2026-02-17 06:17 34.06753 134.14133 39136 ft 641 kts 73°
2026-02-17 06:18 34.08628 134.24715 39083 ft 644 kts 75°
2026-02-17 06:19 34.11480 134.40396 39144 ft 642 kts 73°
2026-02-17 06:19 34.13390 134.50919 39164 ft 642 kts 73°
2026-02-17 06:20 34.15286 134.61493 39120 ft 642 kts 74°
2026-02-17 06:20 34.17185 134.72075 39095 ft 643 kts 76°
2026-02-17 06:21 34.19050 134.82585 39174 ft 642 kts 75°
2026-02-17 06:21 34.20919 134.93214 39128 ft 644 kts 75°
2026-02-17 06:22 34.22779 135.03853 39146 ft 643 kts 76°
2026-02-17 06:22 34.24580 135.14470 39122 ft 641 kts 75°
2026-02-17 06:23 34.27230 135.30246 39128 ft 641 kts 75°
2026-02-17 06:23 34.29000 135.40880 39130 ft 641 kts 75°
2026-02-17 06:24 34.30763 135.51404 39106 ft 638 kts 76°
2026-02-17 06:24 34.32505 135.61961 39098 ft 637 kts 76°
2026-02-17 06:25 34.34240 135.72492 39088 ft 637 kts 76°
2026-02-17 06:25 34.35972 135.83081 39083 ft 638 kts 76°
2026-02-17 06:26 34.37686 135.93640 39077 ft 637 kts 76°
2026-02-17 06:27 34.40230 136.09470 39068 ft 636 kts 76°
2026-02-17 06:27 34.41939 136.20073 39051 ft 641 kts 77°
2026-02-17 06:28 34.43627 136.30579 39069 ft 638 kts 77°
2026-02-17 06:28 34.45301 136.41235 39076 ft 637 kts 77°
2026-02-17 06:29 34.46971 136.51839 39115 ft 633 kts 75°
2026-02-17 06:29 34.48632 136.62434 39102 ft 636 kts 75°
2026-02-17 06:30 34.50270 136.72967 39091 ft 636 kts 77°
2026-02-17 06:30 34.51891 136.83495 39124 ft 634 kts 78°
2026-02-17 06:31 34.53935 136.99443 39129 ft 635 kts 86°
2026-02-17 06:31 34.54131 137.10155 39108 ft 636 kts 91°
2026-02-17 06:32 34.54090 137.20891 38708 ft 634 kts 90°
2026-02-17 06:32 34.54095 137.26260 38101 ft 634 kts 90°
2026-02-17 06:32 34.54122 137.31673 37399 ft 637 kts 90°
2026-02-17 06:33 34.54150 137.37022 36634 ft 642 kts 91°
2026-02-17 06:33 34.54180 137.42433 35984 ft 642 kts 91°
2026-02-17 06:33 34.54211 137.47844 35476 ft 640 kts 90°
2026-02-17 06:33 34.54234 137.53305 34932 ft 637 kts 89°
2026-02-17 06:34 34.54259 137.58662 34358 ft 635 kts 90°
2026-02-17 06:34 34.54277 137.64031 33696 ft 636 kts 89°
2026-02-17 06:34 34.54295 137.69403 33105 ft 635 kts 90°
2026-02-17 06:35 34.54327 137.80130 32043 ft 630 kts 91°
2026-02-17 06:35 34.54337 137.85406 31571 ft 626 kts 91°
2026-02-17 06:35 34.54339 137.90742 31032 ft 620 kts 90°
2026-02-17 06:35 34.54330 137.95860 30567 ft 591 kts 90°
2026-02-17 06:36 34.54327 138.00743 29875 ft 573 kts 90°
2026-02-17 06:36 34.54329 138.05547 28370 ft 573 kts 90°
2026-02-17 06:36 34.54327 138.10405 27142 ft 563 kts 90°
2026-02-17 06:36 34.54322 138.15108 26752 ft 554 kts 90°
2026-02-17 06:37 34.54313 138.19783 26544 ft 553 kts 90°
2026-02-17 06:37 34.54298 138.24454 26303 ft 550 kts 91°
2026-02-17 06:37 34.54282 138.29047 25988 ft 546 kts 90°
2026-02-17 06:37 34.54268 138.33664 25599 ft 542 kts 90°
2026-02-17 06:38 34.54643 138.38202 25249 ft 537 kts 76°
2026-02-17 06:38 34.55735 138.42532 24771 ft 528 kts 63°
2026-02-17 06:38 34.57322 138.46549 24396 ft 519 kts 58°
2026-02-17 06:39 34.60698 138.54266 23565 ft 509 kts 58°
2026-02-17 06:39 34.62353 138.58115 23164 ft 504 kts 58°
2026-02-17 06:39 34.63955 138.61926 22727 ft 500 kts 59°
2026-02-17 06:39 34.65538 138.65753 22271 ft 496 kts 60°
2026-02-17 06:40 34.67083 138.69508 21854 ft 491 kts 60°
2026-02-17 06:40 34.68596 138.73198 21408 ft 486 kts 60°
2026-02-17 06:40 34.70106 138.76918 21010 ft 483 kts 62°
2026-02-17 06:40 34.71217 138.80786 20564 ft 483 kts 75°
2026-02-17 06:41 34.71691 138.84782 20155 ft 480 kts 87°
2026-02-17 06:41 34.71711 138.88847 19707 ft 476 kts 91°
2026-02-17 06:41 34.71614 138.92899 19289 ft 472 kts 92°
2026-02-17 06:41 34.71536 138.96825 18838 ft 469 kts 91°
2026-02-17 06:42 34.71490 139.00783 18382 ft 465 kts 91°
2026-02-17 06:42 34.71465 139.04718 18008 ft 460 kts 90°
2026-02-17 06:42 34.71450 139.08592 17582 ft 457 kts 90°
2026-02-17 06:43 34.71409 139.16267 16717 ft 448 kts 90°
2026-02-17 06:43 34.71387 139.20030 16341 ft 444 kts 90°
2026-02-17 06:43 34.71365 139.23779 15904 ft 440 kts 90°
2026-02-17 06:43 34.71339 139.27518 15499 ft 436 kts 90°
2026-02-17 06:44 34.71313 139.31232 15078 ft 432 kts 90°
2026-02-17 06:44 34.71286 139.34883 14664 ft 429 kts 90°
2026-02-17 06:44 34.71277 139.38503 14242 ft 426 kts 87°
2026-02-17 06:44 34.71753 139.42065 13819 ft 421 kts 71°
2026-02-17 06:45 34.72889 139.45322 13538 ft 410 kts 59°
2026-02-17 06:45 34.74304 139.48381 13430 ft 397 kts 57°
2026-02-17 06:45 34.75694 139.51291 13333 ft 386 kts 57°
2026-02-17 06:45 34.77040 139.54126 13230 ft 375 kts 57°
2026-02-17 06:46 34.78334 139.56905 13139 ft 364 kts 57°
2026-02-17 06:46 34.79591 139.59636 13069 ft 352 kts 58°
2026-02-17 06:46 34.80761 139.62199 13053 ft 341 kts 58°
2026-02-17 06:47 34.83040 139.67200 12965 ft 320 kts 58°
2026-02-17 06:47 34.84112 139.69556 12964 ft 308 kts 57°
2026-02-17 06:47 34.85150 139.71835 12797 ft 304 kts 58°
2026-02-17 06:47 34.86194 139.74120 12450 ft 306 kts 58°
2026-02-17 06:48 34.87235 139.76402 12198 ft 305 kts 58°
2026-02-17 06:48 34.88435 139.78499 11949 ft 299 kts 40°
2026-02-17 06:48 34.90104 139.80049 11700 ft 290 kts 26°
2026-02-17 06:48 34.91888 139.81322 11338 ft 289 kts 25°
2026-02-17 06:49 34.93649 139.82533 10949 ft 288 kts 25°
2026-02-17 06:49 34.95438 139.83777 10584 ft 286 kts 26°
2026-02-17 06:49 34.97188 139.85019 10195 ft 285 kts 26°
2026-02-17 06:49 34.98933 139.86267 9805 ft 284 kts 27°
2026-02-17 06:50 35.00629 139.87488 9454 ft 283 kts 27°
2026-02-17 06:50 35.02339 139.88727 9067 ft 281 kts 28°
2026-02-17 06:50 35.04013 139.89941 8751 ft 278 kts 28°
2026-02-17 06:51 35.07315 139.92340 8221 ft 272 kts 28°
2026-02-17 06:51 35.08953 139.93532 8004 ft 270 kts 29°
2026-02-17 06:51 35.10538 139.94687 7985 ft 261 kts 28°
2026-02-17 06:51 35.12096 139.95822 7983 ft 257 kts 28°
2026-02-17 06:52 35.13625 139.96936 7975 ft 246 kts 28°
2026-02-17 06:52 35.15124 139.97797 7966 ft 231 kts 12°
2026-02-17 06:52 35.16679 139.98106 7848 ft 220 kts 358°
2026-02-17 06:52 35.18204 139.98158 7677 ft 216 kts 356°
2026-02-17 06:53 35.19717 139.98171 7507 ft 212 kts 356°
2026-02-17 06:53 35.21183 139.98193 7339 ft 209 kts 356°
2026-02-17 06:53 35.22630 139.98227 7147 ft 207 kts 357°
2026-02-17 06:53 35.24091 139.98270 6927 ft 206 kts 357°
2026-02-17 06:54 35.25491 139.98084 6728 ft 200 kts 341°
2026-02-17 06:54 35.26791 139.97507 6471 ft 196 kts 331°
2026-02-17 06:54 35.28009 139.96748 6109 ft 194 kts 328°
2026-02-17 06:55 35.30360 139.95131 5375 ft 194 kts 329°
2026-02-17 06:55 35.31531 139.94307 5104 ft 190 kts 329°
2026-02-17 06:55 35.32668 139.93500 4828 ft 184 kts 329°
2026-02-17 06:55 35.33775 139.92711 4565 ft 178 kts 330°
2026-02-17 06:56 35.34820 139.91966 4325 ft 171 kts 331°
2026-02-17 06:56 35.35839 139.91238 4093 ft 164 kts 332°
2026-02-17 06:56 35.36819 139.90538 3874 ft 157 kts 333°
2026-02-17 06:56 35.37748 139.89874 3661 ft 150 kts 333°
2026-02-17 06:57 35.38653 139.89229 3468 ft 149 kts 334°
2026-02-17 06:57 35.39547 139.88574 3289 ft 150 kts 334°
2026-02-17 06:57 35.40454 139.87920 3086 ft 149 kts 335°
2026-02-17 06:57 35.41369 139.87312 2863 ft 149 kts 336°
2026-02-17 06:58 35.42287 139.86714 2640 ft 149 kts 335°
2026-02-17 06:58 35.43214 139.86081 2424 ft 149 kts 334°
2026-02-17 06:58 35.44114 139.85434 2225 ft 148 kts 333°
2026-02-17 06:59 35.45893 139.84064 1845 ft 147 kts 333°
2026-02-17 06:59 35.46807 139.83408 1622 ft 146 kts 336°
2026-02-17 06:59 35.47707 139.82788 1417 ft 144 kts 334°
2026-02-17 06:59 35.48598 139.82159 1230 ft 144 kts 335°
2026-02-17 07:00 35.49485 139.81537 1041 ft 143 kts 334°
2026-02-17 07:00 35.50375 139.80913 844 ft 143 kts 334°
2026-02-17 07:00 35.51262 139.80287 635 ft 144 kts 333°
2026-02-17 07:00 35.52135 139.79672 429 ft 143 kts 333°
2026-02-17 07:01 35.52999 139.79042 220 ft 143 kts 332°
2026-02-17 07:01 35.53857 139.78427 53 ft 141 kts 333°
2026-02-17 07:01 35.54627 139.77889 37 ft 102 kts 333°
2026-02-17 07:01 35.55075 139.77562 37 ft 51 kts 330°
2026-02-17 07:02 35.55293 139.77411 37 ft 33 kts 335°
2026-02-17 07:02 35.55463 139.77356 37 ft 19 kts 355°
2026-02-17 07:02 35.55552 139.77365 37 ft 11 kts 30°
2026-02-17 07:03 35.55627 139.77537 37 ft 10 kts 110°
2026-02-17 07:03 35.55564 139.77597 37 ft 13 kts 150°
2026-02-17 07:03 35.55480 139.77657 37 ft 15 kts 150°
2026-02-17 07:03 35.55383 139.77725 37 ft 16 kts 150°
2026-02-17 07:04 35.55280 139.77797 37 ft 17 kts 150°
2026-02-17 07:04 35.55176 139.77873 37 ft 17 kts 149°
2026-02-17 07:04 35.55077 139.77942 37 ft 10 kts 150°
2026-02-17 07:04 35.55054 139.77979 37 ft 5 kts 92°
2026-02-17 07:05 35.55065 139.78018 37 ft 0 kts 64°
2026-02-17 07:05 35.55072 139.78032 37 ft 3 kts 57°
2026-02-17 07:05 35.55084 139.78055 37 ft 0 kts 57°
2026-02-17 07:05 35.55086 139.78059 37 ft 0 kts 57°